Tracking 20093 objects as of 14-Dec-2019
HD Live streaming from Space Station
objects crossing your sky now

COSMOS 2251 DEB

Track COSMOS 2251 DEB now!
10-day predictions


NORAD ID: 35761
Int'l Code: 1993-036ARF
Perigee: 700.9 km
Apogee: 766.2 km
Inclination: 74.1 °
Period: 99.3 minutes
Semi major axis: 7104 km
RCS: 0.008 m2 (small)
Launch date: June 16, 1993
Source: Commonwealth of Independent States (former USSR) (CIS)
Launch site: PLESETSK MISSILE AND SPACE COMPLEX (PKMTR)

Note: This is SATELLITE DEBRIS
aabbcc
Your satellite tracking list
Your tracking list is empty




NASA's NSSDC Master Catalog

Two Line Element Set (TLE):
1 35761U 93036ARF 12259.25707325 +.00007604 +00000-0 +19514-2 0  9992
2 35761 074.0685 101.6135 0045916 355.1048 000.2537 14.49771569172260
Source of the keplerian elements: AFSPC